INTELSAT 20 (IS-20)

Last updated on Sat Aug 15 2026 00:02:59 GMT+0000 (Coordinated Universal Time)

1 38740U 12043A 26226.58148946 -.00000039 00000+0 00000+0 0 9996 2 38740 0.0183 108.1751 0001167 65.0979 67.5650 1.00271067 51335
UTC large
Height (km)
Speed (km/s)
/
Latitude / Longitude
Inclination (degrees)
Orbital Period (minutes)
Azimuth
Elevation
Range (km)
Doppler Factor

Next 0 passes for location: London (51.5072 / 0.1276)

No passes found over London.
INTELSAT 20 (IS-20)